Regional Weather Roundup
Issued by NWS

Home | Current Version | Previous Version | Graphics & Text | Print | Product List | Glossary On
Versions: 1 2 3 4 5 6 7 8 9 10 11 12 13 14 15 16 17 18 19 20 21 22 23 24 25 26 27 28 29 30 31 32 33 34 35 36 37 38 39 40 41 42 43 44 45 46 47 48 49 50
000
ASUS43 KLSX 270107
RWRMO

WEATHER SUMMARY FOR MISSOURI
NATIONAL WEATHER SERVICE SPRINGFIELD MO
800 PM CDT THU MAR 26 2015

NOTE: "FAIR" INDICATES FEW OR NO CLOUDS BELOW 12,000 FEET WITH NO
       SIGNIFICANT WEATHER AND/OR OBSTRUCTIONS TO VISIBILITY.
       CURRENT SKY AND/OR WEATHER CONDITIONS ARE NOT AVAILABLE FOR
       CHILLICOTHE AND FARMINGTON.

MOZ001>031-035>038-043-044-053-054-270200-
...NORTHERN AND WESTERN MISSOURI...

CITY           SKY/WX    TMP DP  RH WIND       PRES   REMARKS
KANSAS CTY INT CLOUDY    45  29  53 N8        30.09R
KANSAS C DTWN  CLOUDY    49  27  42 N6        30.07R
LEE`S SUMMIT   CLOUDY    48  26  42 N5        30.06S
ST JOSEPH      LGT RAIN  45  31  58 N9G28     30.11R
CHILLICOTHE      N/A     47  29  49 CALM      30.09R
KIRKSVILLE     CLOUDY    43  27  53 N8        30.07R

$$
MOZ066>068-077>081-088>096-101>105-270200-
...SOUTHWEST MISSOURI...

CITY           SKY/WX    TMP DP  RH WIND       PRES   REMARKS
SPRINGFIELD    CLEAR     46  26  45 NW3       30.07S
JOPLIN         CLEAR     47  29  49 CALM      30.09S

$$
MOZ032>034-039>042-045>050-055>058-069>072-270200-
...CENTRAL MISSOURI...

CITY           SKY/WX    TMP DP  RH WIND       PRES   REMARKS
COLUMBIA       CLEAR     43  28  55 NW7       30.07R
JEFFERSON CITY CLEAR     46  28  49 NW5       30.08R
ROLLA          CLEAR     42  29  59 MISG      30.05R
SEDALIA        PTCLDY    45  31  58 NW3       30.08S
WHITEMAN AFB   MOCLDY    46  30  52 N2        30.05F
WARRENSBURG    MOCLDY    45  28  53 N3        30.07S
OSAGE BEACH    CLEAR     45  27  49 N3        30.08R

$$
MOZ051-052-059>065-270200-
...EAST CENTRAL MISSOURI...

CITY           SKY/WX    TMP DP  RH WIND       PRES   REMARKS
ST LOUIS INTL  PTCLDY    45  26  47 NW6       30.06R
SPIRIT OF STL  PTCLDY    44  29  55 W5        30.06R
ST CHARLES     LGT RAIN  44  27  51 NW7       30.06R

$$
MOZ072>076-082>087-097>100-106>115-270200-
...SOUTH CENTRAL AND SOUTHEAST MISSOURI...

CITY           SKY/WX    TMP DP  RH WIND       PRES   REMARKS
CAPE GIRARDEAU CLEAR     43  33  68 N9        30.05R
FARMINGTON     CLEAR     45  27  49 N6        30.09R
POPLAR BLUFF   CLEAR     46  35  65 N3        30.04R
WEST PLAINS    CLEAR     45  25  45 MISG      30.06R

$$


USA.gov is the U.S. government's official web portal to all federal, state and local government web resources and services.